Aérodrome :
LOGIN :

S'inscrire | Disclaimer

   EN    FR    IT 

 










Légende :    VFR   VFR Marginal   IFR   IFR Intensif   IFR Très Intensif
Visi : 
Plafond : 
>= 8 km
>= 3000ft
5 à 8 km
1000 à 3000 ft
1500m à 5 km
500 à 1000 ft
800 à 1500m
200 à 500 ft
< 800m
< 200 ft
Symboles :   Orages  Brouillard  Fortes neiges  Fortes précipitations  Vent > 20 kt
SIGMETs :   Divers  Orages  Givrage  Turbulence  Onde Orograph.  Cendres Volcan.






- Altitude de l'aérodrome : 453 ft
- Code IATA : SBK


LFRT - St Brieuc Armor

DERNIER METAR :
  • 291930Z AUTO 22007KT 190V250 9999 FEW021 OVC033 05/03 Q1028

METARs EXPIRÉS :
  • 291900Z AUTO 23006KT 9999 FEW023 SCT028 OVC034 06/02 Q1029
  • 291830Z AUTO 24008KT 9999 FEW025 OVC032 06/02 Q1029
  • 291800Z AUTO 23007KT 9999 OVC032 06/02 Q1029
  • 291730Z AUTO 22005KT 9999 OVC034 06/02 Q1029
  • 291700Z AUTO 23005KT 190V260 9999 OVC034 06/02 Q1029
  • 291630Z AUTO 23006KT 9999 OVC033 07/03 Q1029

Prévision TAF périmée.



MET'MAP, la Météo Aéronautique d'un coup d'oeil ! - Copyright ORBIFLY Décembre 2007 - Disclaimer

ORBIFLY MET'MAP TEAM :

Programmation & Développement : Alexandra Zaïnal
Sur une idée originale de : Baudouin d'Aumeries
Soutien technique & logistique : Manuel Goepfert
Assistance : Marc-Olivier Méhu




SOURCES & CREDITS :

   NOAA